Location: Newark
(45.9456°N, 15.4064°E)
Time: 07:21:43
(UTC+00:00)

SR - Pass Details

Date: 04 February 2020
Orbit: 575 x 881 km, 66.7° (Epoch: 18 February)

Event Time Altitude Azimuth Distance (km) Brightness Sun altitude
Rises 02:55:23 0° 328° (NNW) 3,396 - -35.3°
Reaches altitude 10° 02:58:00 10° 333° (NNW) 2,419 - -34.9°
Maximum altitude 03:03:26 53° 51° (NE) 941 - -33.9°
Exits shadow 03:05:25 34° 109° (ESE) 1,224 ? -33.6°
Drops below altitude 10° 03:08:24 10° 128° (SE) 2,210 ? -33.1°
Sets 03:10:42 0° 134° (SE) 3,077 ? -32.7°
